Lands and Survey Department Salaries




THE NEW ZEALAND GAZETTE,

JULY 4.]

1763

LANDS AND SURVEY DEPARTMENT—continued.

Name Salary for Year ended 31st March, 1933. Salary for Year ending 31st March, 1934. Date from which payable. Amount. Classification Division and Class. Maximum for Position. Position and Place. Month and Year of Appointment. Examinations and Remarks.
£ s. d. £ s. d. £ s. d.
1 Taylor, Miss E. M. 271 7 0 271 7 0 1/4/32 C, VI 271 7 0 Clerk, Auckland M. Y. 31 10 Sn. Ex. Sn. Ex., Matric.
2 Woodhouse, Miss F. E. 271 7 0 271 7 0 1/4/32 C, VI 271 7 0 Clerk, Head Office 18 10 Sn. Ex. Sn. Ex., Matric.
3 Poutawera, L. R. 271 7 0 271 7 0 1/4/32 C, VI 271 7 0 Clerk, Head Office 1/96 21 1 Sn. Ex., Equiv.
4 Seeker, H. P. 271 7 0 271 7 0 1/4/39 C, VI 271 7 0 Clerk, Head Office 2/95 20 0 Sn. Ex., Equiv.
5 Heywood, C. F. 271 7 0 271 7 0 1/4/32 C, VI 271 7 0 Clerk, North Auckland 9/95 22 1 Sn. Ex.
6 Dickson, B. 271 7 0 271 7 0 6/1/32 C, VI 271 7 0 Accountant Blenheim 4/96 19 4 Jn. Ex., Matric.
7 Gibbs, W. E. A. 271 7 0 271 7 0 1/4/32 C, VI 271 7 0 Clerk, North Auckland 6/96 19 11 Jn. Ex., B.Com.
8 Peterson, J. A. 271 7 0 271 7 0 1/4/32 C, VI 271 7 0 Clerk, Wellington 7/97 17 8 Jn. Ex., Deptl. Ex.
9 Foster, J. A. 271 7 0 271 7 0 1/4/32 C, VI 271 7 0 Clerk, Auckland 1/00 17 1 Sn. Ex. Eq. Also Returning Officer.
10 Brown, S. H. 271 7 0 271 7 0 1/4/32 C, VI 271 7 0 Clerk, New Plymouth 8/97 16 10 Jn. Ex., Deptl. Ex.
11 Choate, A. L. 271 7 0 271 7 0 1/4/32 C, VI 271 7 0 Clerk, Christchurch 10/00 16 9 Jn. Ex., Deptl. Ex.
12 Dent, W. G. 271 7 0 271 7 0 1/4/32 C, VI 271 7 0 Clerk, Head Office 10/99 18 7 Jn. Ex., Accts' Prof.
13 Adamson, H. G. K. 271 7 0 271 7 0 1/4/32 C, VI 271 7 0 Clerk, North Auckland 1/90 13 4 Sn. Ex., Law Prof.
14 Wakelin, E. P. 271 7 0 271 7 0 1/4/32 C, VI 271 7 0 Clerk, Head Office 10/00 15 10 Jn. Ex., Law Prof.
15 Mellsop, Miss W. L. J. 259 4 0 271 7 0 1/4/32 C, VI 259 4 0 Clerk, Auckland 9/92 21 1 Sn. Ex.
16 Dixon, J. B. 271 7 0 271 7 0 1/4/32 C, VI 271 7 0 Clerk, Wellington 8/95 18 9 Jn. Ex., Matric.
17 Macartney, A. D. 271 7 0 271 7 0 1/4/32 C, VI 271 7 0 Clerk, Auckland 10/99 15 10 Jn. Ex., Accts' Prel.
18 Seamen, F. N. 271 7 0 271 7 0 1/4/32 C, VI 271 7 0 Clerk, North Auckland 8/96 18 9 Equiv.
19 Bush, S. C. W. 271 7 0 271 7 0 1/4/32 C, VII 271 7 0 Clerk, New Plymouth 4/00 15 7 Jn. Ex., Accts' Prel.
20 Barnett, S. T. 271 7 0 271 7 0 1/4/32 C, VII 271 7 0 Clerk, Christchurch 11/01 15 2 Jn. Ex., Solr.
21 Hazledine, J. M. 271 7 0 271 7 0 1/4/32 C, VII 271 7 0 Clerk, Wellington 10/00 16 7 Jn. Ex.
22 Routledge, C. W. 271 7 0 271 7 0 25/11/32 C, VII 271 7 0 Clerk, Hokitika 2/00 16 1 Jn. Ex., Accts' Prof.
23 Jamieson, Miss H. S. 259 4 0 271 7 0 1/4/32 C, VII 259 4 0 Clerk, Invercargill 29 0 Jn. Ex., Matric.
24 King, G. H. 271 7 0 271 7 0 1/4/32 C, VII 271 7 0 Clerk, Nelson 6/80 21 11
25 Wright, N. 238 19 0 238 19 0 1/4/33 C, VII 238 19 0 Clerk, Napier 12/71 25 1
26 White, Miss W. E. C. 238 19 0 238 19 0 1/4/32 C, VII 238 19 0 Clerk, Wellington 30 7 Jn. Ex., Matric.
27 Gideon, Miss E. C. 238 19 0 238 19 0 1/4/32 C, VII 238 19 0 Clerk, Napier 29 6 Sn. Ex.
28 Hammond, Miss M. 213 15 0 238 19 0 1/4/32 C, VII 238 19 0 Clerk, New Plymouth 25 7
29 St. G. Mackune, F. 238 19 0 238 19 0 1/4/32 C, VII 238 19 0 Clerk, North Auckland 7/96 19 10 Sn. Ex.
30 McLeod, Miss R. K. M. 238 19 0 238 19 0 1/4/32 C, VII 238 19 0 Clerk, North Auckland 25 3 Jn. Ex., Matric.
31 O'Neil, P. A. 238 19 0 238 19 0 1/4/32 C, VII 238 19 0 Clerk, New Plymouth 1/99 17 0 Jn. Ex.
32 Girdlestone, C. S. 238 19 0 238 19 0 1/4/32 C, VII 238 19 0 Clerk, Wellington 9/83 16 5
33 Hay, Miss D. C. 238 19 0 238 19 0 1/4/32 C, VII 238 19 0 Clerk, Dunedin 15 5 Sn. Ex.
34 Mathers, W. J. 238 19 0 238 19 0 1/4/32 C, VII 238 19 0 Clerk, Dunedin 6/01 15 3 Jn. Ex., Deptl. Ex.
35 Sweeney, Miss A. I. 238 19 0 238 19 0 1/4/32 C, VII 238 19 0 Cashier, Christchurch 18 7 Jn. Ex., Matric.
36 Plimmer, N. 238 19 0 238 19 0 1/4/32 C, VII 238 19 0 Clerk, Auckland 1/01 14 0 Jn. Ex.
37 Stacey, R. K. 238 19 0 238 19 0 1/4/32 C, VII 238 19 0 Cashier, N. Auckland 12/03 13 10 Jn. Ex., Deptl. Ex.
38 Dewar, D. L. 238 19 0 238 19 0 1/4/32 C, VII 238 19 0 Clerk, Blenheim 10/02 13 9 Jn. Ex.
39 Ottaway, J. H. 238 19 0 238 19 0 1/4/32 C, VII 238 19 0 Clerk, Wellington 2/03 13 7 Jn. Ex.
40 Grigg, A. 238 19 0 238 19 0 1/4/32 C, VII 238 19 0 Clerk, Blenheim 12/98 18 8
41 Kennedy, W. F. 238 19 0 238 19 0 1/4/32 C, VII 238 19 0 Clerk, Gisborne 10/98 18 5 Sub. Ent. Ex.
42 Alsweiler, L. G. 238 19 0 238 19 0 1/4/32 C, VII 238 19 0 Clerk, New Plymouth 2/98 18 4
43 Meiklejohn, C. G. 238 19 0 238 19 0 1/4/32 C, VII 238 19 0 Clerk, Dunedin 10/99 17 6 Jn. Ex., Matric.
44 Breeze, H. L. 238 19 0 238 19 0 1/4/32 C, VII 238 19 0 Clerk, Hokitika 2/99 17 5
45 Guy, R. A. 238 19 0 238 19 0 1/4/32 C, VII 238 19 0 Clerk, Dunedin 7/98 16 11 Accts' Prel.
46 McKenzie, E. 238 19 0 238 19 0 1/4/32 C, VII 238 19 0 Clerk, Christchurch 6/99 16 11 Accts' Prel.
47 Maxwell, T. L. G. 238 19 0 238 19 0 1/4/32 C, VII 238 19 0 Clerk, Christchurch 11/99 16 3
48 Malcolmson, D. W. 238 19 0 238 19 0 1/4/32 C, VII 238 19 0 Clerk, North Auckland 7/01 16 1 Jn. Ex., Accts' Prel.
49 Dunlop, R. H. 238 19 0 238 19 0 1/4/32 C, VII 238 19 0 Clerk, New Plymouth 5/97 16 1 Jn. Ex., Matric.
50 Haines, H. J. C. 238 19 0 238 19 0 1/4/32 C, VII 238 19 0 Clerk, North Auckland 6/99 16 1 Jn. Ex., Accts' Prel.
51 Palmer, T. A. A. 238 19 0 238 19 0 1/4/32 C, VII 238 19 0 Clerk, Auckland 7/99 15 7 Equiv.
52 Nicholson, W. H. 238 19 0 238 19 0 1/4/32 C, VII 238 19 0 Clerk, Head Office 3/02 15 3
53 Menzies, B. H. 238 19 0 238 19 0 1/4/32 C, VII 238 19 0 Clerk, Auckland 6/02 15 3 Deptl. Ex.
54 Pearce, J. J. 238 19 0 238 19 0 1/4/32 C, VII 238 19 0 Clerk, Dunedin 10/01 14 10
55 Reed, A. J. 238 19 0 238 19 0 1/4/32 C, VII 238 19 0 Clerk, New Plymouth 11/01 14 10
56 Blomfield, C. W. 238 19 0 238 19 0 1/4/32 C, VII 238 19 0 Clerk, Christchurch 6/99 16 8 Jn. Ex., Deptl. Ex.
57 Watkins, C. E. N. 238 19 0 238 19 0 1/4/32 C, VII 238 19 0 Clerk, Gisborne 12/02 13 11 Sub. Ent. Ex.
58 Hunter, J. G. 238 19 0 238 19 0 1/4/32 C, VII 238 19 0 Clerk, Auckland 5/04 13 2 Deptl. Ex.
59 Froggatt, E. F. 238 19 0 238 19 0 1/4/32 C, VII 238 19 0 Clerk, Head Office 5/02 13 2 Jn. Ex., Deptl. Ex.
60 Heinz, C. E. 238 19 0 238 19 0 1/4/32 C, VII 238 19 0 Clerk, Christchurch 3/03 13 2 Jn. Ex.
61 Price, J. G. 238 19 0 238 19 0 1/4/32 C, VII 238 19 0 Clerk, North Auckland 7/02 13 1 Jn. Ex., Law Prof.
62 Christie, R. D. 238 19 0 238 19 0 1/4/32 C, VII 238 19 0 Clerk, Wellington 1/02 13 1 Matric.
63 Seelen, G. G. 238 19 0 238 19 0 1/4/32 C, VII 238 19 0 Clerk, Dunedin 10/03 13 1 Jn. Ex., Matric.
64 Sew Hoy, C. 238 19 0 238 19 0 1/4/32 C, VII 238 19 0 Clerk, Dunedin 5/04 13 1 Jn. Ex., Matric.
65 Leabourn, R. 238 19 0 238 19 0 1/4/32 C, VII 238 19 0 Clerk, North Auckland 4/01 13 1 Jn. Ex., Deptl. Ex.
66 Gallie, C. R. 238 19 0 238 19 0 1/4/32 C, VII 238 19 0 Clerk, North Auckland 7/03 13 1 Jn. Ex.
67 Stevenson, D. 238 19 0 238 19 0 1/4/32 C, VII 238 19 0 Clerk, New Plymouth 8/03 13 1 Jn. Ex.
68 Oughton, G. 238 19 0 238 19 0 1/4/32 C, VII 238 19 0 Clerk, Invercargill 5/04 12 11
69 Barclay, W. S. 238 19 0 238 19 0 1/4/32 C, VII 238 19 0 Clerk, Wellington 5/02 13 0 Jn. Ex., Matric.
70 Paterson, D. A. 238 19 0 238 19 0 1/4/32 C, VII 238 19 0 Clerk, North Auckland 1/03 12 11 Law Prof. Also Returning Officer, Eden.

*Made permanent under the Temporary Employees Act, 1913.



Next Page →

PDF embedding disabled (Crown copyright)

View this page online at:


VUW Te Waharoa PDF NZ Gazette 1933, No 48


NZLII PDF NZ Gazette 1933, No 48





✨ LLM interpretation of page content

🗺️ Lands and Survey Department Salaries and Positions (continued from previous page)

🗺️ Lands, Settlement & Survey
Salaries, Positions, Lands and Survey Department, Clerical Staff, 1933, 1934
70 names identified
  • E. M. Taylor (Miss), Clerk, Auckland
  • F. E. Woodhouse (Miss), Clerk, Head Office
  • L. R. Poutawera, Clerk, Head Office
  • H. P. Seeker, Clerk, Head Office
  • C. F. Heywood, Clerk, North Auckland
  • B. Dickson, Accountant, Blenheim
  • W. E. A. Gibbs, Clerk, North Auckland
  • J. A. Peterson, Clerk, Wellington
  • J. A. Foster, Clerk, Auckland
  • S. H. Brown, Clerk, New Plymouth
  • A. L. Choate, Clerk, Christchurch
  • W. G. Dent, Clerk, Head Office
  • H. G. K. Adamson, Clerk, North Auckland
  • E. P. Wakelin, Clerk, Head Office
  • W. L. J. Mellsop (Miss), Clerk, Auckland
  • J. B. Dixon, Clerk, Wellington
  • A. D. Macartney, Clerk, Auckland
  • F. N. Seamen, Clerk, North Auckland
  • S. C. W. Bush, Clerk, New Plymouth
  • S. T. Barnett, Clerk, Christchurch
  • J. M. Hazledine, Clerk, Wellington
  • C. W. Routledge, Clerk, Hokitika
  • H. S. Jamieson (Miss), Clerk, Invercargill
  • G. H. King, Clerk, Nelson
  • N. Wright, Clerk, Napier
  • W. E. C. White (Miss), Clerk, Wellington
  • E. C. Gideon (Miss), Clerk, Napier
  • M. Hammond (Miss), Clerk, New Plymouth
  • F. Mackune (St. G.), Clerk, North Auckland
  • R. K. M. McLeod (Miss), Clerk, North Auckland
  • P. A. O'Neil, Clerk, New Plymouth
  • C. S. Girdlestone, Clerk, Wellington
  • D. C. Hay (Miss), Clerk, Dunedin
  • W. J. Mathers, Clerk, Dunedin
  • A. I. Sweeney (Miss), Cashier, Christchurch
  • N. Plimmer, Clerk, Auckland
  • R. K. Stacey, Cashier, N. Auckland
  • D. L. Dewar, Clerk, Blenheim
  • J. H. Ottaway, Clerk, Wellington
  • A. Grigg, Clerk, Blenheim
  • W. F. Kennedy, Clerk, Gisborne
  • L. G. Alsweiler, Clerk, New Plymouth
  • C. G. Meiklejohn, Clerk, Dunedin
  • H. L. Breeze, Clerk, Hokitika
  • R. A. Guy, Clerk, Dunedin
  • E. McKenzie, Clerk, Christchurch
  • T. L. G. Maxwell, Clerk, Christchurch
  • D. W. Malcolmson, Clerk, North Auckland
  • R. H. Dunlop, Clerk, New Plymouth
  • H. J. C. Haines, Clerk, North Auckland
  • T. A. A. Palmer, Clerk, Auckland
  • W. H. Nicholson, Clerk, Head Office
  • B. H. Menzies, Clerk, Auckland
  • J. J. Pearce, Clerk, Dunedin
  • A. J. Reed, Clerk, New Plymouth
  • C. W. Blomfield, Clerk, Christchurch
  • C. E. N. Watkins, Clerk, Gisborne
  • J. G. Hunter, Clerk, Auckland
  • E. F. Froggatt, Clerk, Head Office
  • C. E. Heinz, Clerk, Christchurch
  • J. G. Price, Clerk, North Auckland
  • R. D. Christie, Clerk, Wellington
  • G. G. Seelen, Clerk, Dunedin
  • C. Sew Hoy, Clerk, Dunedin
  • R. Leabourn, Clerk, North Auckland
  • C. R. Gallie, Clerk, North Auckland
  • D. Stevenson, Clerk, New Plymouth
  • G. Oughton, Clerk, Invercargill
  • W. S. Barclay, Clerk, Wellington
  • D. A. Paterson, Clerk, North Auckland